{"data":{"norad_id":47745,"epoch":"2026-09-04T22:27:00.844416Z","epoch_age_seconds":1370446,"freshness":"OLD","line1":"1 47745U 21017Z   26247.93542644  .09061136  12516-4  41500-3 0  9994","line2":"2 47745  53.1318  42.9634 0012340 300.0086  59.9738 16.42114100305958","mean_motion":16.421141,"eccentricity":0.001234,"inclination_deg":53.1318,"raan_deg":42.9634,"arg_perigee_deg":300.0086,"mean_anomaly_deg":59.9738,"bstar":0.000415,"rev_number":30595,"period_min":87.691835786563,"perigee_km":152.11645381136,"apogee_km":168.25303187269,"semimajor_km":6538.321742842,"source":"CELESTRAK","updated_at":"2026-09-06T09:00:33.693958Z"}}